Hourly Weather Roundup
Issued by NWS Central Illinois

Home | Current Version | Previous Version | Text Only | Print | Product List | Glossary On
Versions: 1 2 3 4 5 6 7 8 9 10 11 12 13 14 15 16 17 18 19 20 21 22 23 24 25 26 27 28 29 30 31 32 33 34 35 36 37 38 39 40 41 42 43 44 45 46 47 48 49 50
000
NZUS43 KILX 150310
HWRILX

AREA WEATHER ROUNDUP
NATIONAL WEATHER SERVICE, LINCOLN IL
1000 PM CDT SUN SEP 14 2014


CITY           SKY/WX    TMP DP  RH WIND       PRES   REMARKS
BLOOMINGTON    CLEAR     53  43  69 S5        30.20S
CHAMPAIGN      CLEAR     52  46  80 S7        30.20S
DECATUR        CLEAR     55  46  71 S6        30.19F
FLORA          CLEAR     51  50  95 CALM      30.22R
GALESBURG      MOCLDY    55  47  75 CALM      30.18R
JACKSONVILLE   CLEAR     56  50  81 S5        30.19S
LACON          CLEAR     50  47  91 CALM      30.17S
LAWRENCEVILLE  CLEAR     52  50  93 CALM      30.21S
LITCHFIELD     CLEAR     53  47  81 CALM      30.19F
$$


CITY           SKY/WX    TMP DP  RH WIND       PRES   REMARKS
LINCOLN        CLEAR     53  46  76 CALM      30.17S
MACOMB         CLEAR     49  47  92 S3        30.20S
MATTOON        CLEAR     53  49  86 S3        30.20S
MT CARMEL AP   CLEAR     54  52  94 CALM      30.20S
OLNEY-NOBLE AP CLEAR     48  46  93 CALM      30.22R
PARIS          CLEAR     49  48  97 CALM      30.21S
PEORIA         PTCLDY    54  50  86 CALM      30.18S
PONTIAC        CLEAR     50  48  93 CALM      30.18F
RANTOUL        CLEAR     54  46  73 SE3       30.21R
ROBINSON       CLEAR     49  48  97 CALM      30.22R
SPRINGFIELD    CLEAR     54  48  80 S6        30.19S
TAYLORVILLE    CLEAR     52  46  82 S5        30.19F
$$

...REGIONAL REPORTS...


CITY           SKY/WX    TMP DP  RH WIND       PRES   REMARKS
CHICAGO O`HARE PTCLDY    53  46  77 SW3       30.17S
KANKAKEE       CLEAR     49  48  97 CALM      30.19F
MOLINE         MOCLDY    54  50  86 CALM      30.17R
MOUNT VERNON   CLEAR     50  46  87 CALM      30.21S
PITTSFIELD     CLEAR     54  49  82 CALM      30.18S
QUINCY         PTCLDY    55  49  80 S6        30.17S
ROCKFORD       MOCLDY    51  47  86 S5        30.20S
$$


CITY           SKY/WX    TMP DP  RH WIND       PRES   REMARKS
BURLINGTON     MOCLDY    54  51  90 CALM      30.16S
CEDAR RAPIDS   MOCLDY    53  50  89 S3        30.15S
DES MOINES     CLOUDY    63  53  70 S7        30.13S
KIRKSVILLE     MOCLDY    56  52  86 CALM      30.15S
OTTUMWA        CLOUDY    57  51  80 SE5       30.14F
ST LOUIS       CLEAR     64  48  56 SE7       30.19S
$$


CITY           SKY/WX    TMP DP  RH WIND       PRES   REMARKS
TERRE HAUTE    CLEAR     50  46  86 CALM      30.21S
EVANSVILLE     CLEAR     57  50  77 CALM      30.21S
INDIANAPOLIS   CLEAR     57  48  72 SW3       30.20S
LAFAYETTE      CLEAR     51  48  89 CALM      30.20S
MADISON        MOCLDY    59  47  64 S5        30.15R
MILWAUKEE      MOCLDY    56  46  69 S6        30.16S
$$




USA.gov is the U.S. government's official web portal to all federal, state and local government web resources and services.